Terminal Aerodrome Forecast
Issued by NWS Central Illinois

Home | Current Version | Previous Version | Text Only | Print | Product List | Glossary On
Versions: 1 2 3 4 5 6 7 8 9 10 11 12 13 14 15 16 17 18 19 20 21 22 23 24 25
565
FTUS43 KILX 141623 AAD
TAFSPI
TAF AMD
KSPI 141623Z 1416/1512 14015G22KT 1SM -SN SCT009 OVC015
      TEMPO 1416/1418 1/2SM SN FG VV009
     FM141800 14014G22KT 1SM -SN BR BKN007 OVC012
     FM142000 14014KT 1 1/2SM -SN BR OVC006
     FM150000 15010KT 4SM BR VCSH BKN006 OVC012=

USA.gov is the U.S. government's official web portal to all federal, state and local government web resources and services.